Time,TemperatureF,DewpointF,PressureIn,WindDirection,WindDirectionDegrees,WindSpeedMPH,WindSpeedGustMPH,Humidity,HourlyPrecipIn,Conditions,Clouds,dailyrainin,SolarRadiationWatts/m^2,SoftwareType,DateUTC
2013-01-10 00:02:00,50.0,32.0,-100.00,WSW,256,0.0,3.0,49,0.00,,,0.00,0.000000,,2013-01-10 07:02:00,
2013-01-10 00:42:00,49.0,26.0,-100.00,SSE,152,2.0,2.0,40,0.00,,,0.00,0.000000,,2013-01-10 07:42:00,
2013-01-10 00:52:00,49.0,26.0,-100.00,SSE,152,2.0,2.0,40,0.00,,,0.00,0.000000,,2013-01-10 07:52:00,
2013-01-10 01:01:00,49.0,26.0,-100.00,SSE,152,2.0,2.0,40,0.00,,,0.00,0.000000,,2013-01-10 08:01:00,
2013-01-10 01:32:00,52.0,32.0,-100.00,ESE,120,7.0,7.0,46,0.00,,,0.00,0.000000,,2013-01-10 08:32:00,
2013-01-10 01:42:00,52.0,32.0,-100.00,ESE,120,7.0,7.0,46,0.00,,,0.00,0.000000,,2013-01-10 08:42:00,
2013-01-10 01:52:00,52.0,32.0,-100.00,ESE,120,7.0,7.0,46,0.00,,,0.00,0.000000,,2013-01-10 08:52:00,
2013-01-10 02:02:00,52.0,32.0,-100.00,ESE,120,7.0,7.0,46,0.00,,,0.00,0.000000,,2013-01-10 09:02:00,
2013-01-10 02:43:00,51.0,31.0,-100.00,ENE,75,2.0,10.0,46,0.00,,,0.00,0.000000,,2013-01-10 09:43:00,
2013-01-10 02:52:00,51.0,31.0,-100.00,ENE,75,2.0,10.0,46,0.00,,,0.00,0.000000,,2013-01-10 09:52:00,
2013-01-10 03:02:00,51.0,31.0,-100.00,ENE,75,2.0,10.0,46,0.00,,,0.00,0.000000,,2013-01-10 10:02:00,
2013-01-10 03:33:00,52.0,33.0,-100.00,NNE,18,0.0,9.0,49,0.00,,,0.00,0.000000,,2013-01-10 10:33:00,
2013-01-10 03:42:00,52.0,33.0,-100.00,NNE,18,0.0,9.0,49,0.00,,,0.00,0.000000,,2013-01-10 10:42:00,
2013-01-10 03:52:00,52.0,33.0,-100.00,NNE,18,0.0,9.0,49,0.00,,,0.00,0.000000,,2013-01-10 10:52:00,
2013-01-10 04:02:00,52.0,33.0,-100.00,NNE,18,0.0,9.0,49,0.00,,,0.00,0.000000,,2013-01-10 11:02:00,
2013-01-10 04:43:00,48.0,32.0,-100.00,NNE,16,0.0,4.0,54,0.00,,,0.00,0.000000,,2013-01-10 11:43:00,
2013-01-10 04:53:00,48.0,32.0,-100.00,NNE,16,0.0,4.0,54,0.00,,,0.00,0.000000,,2013-01-10 11:53:00,
2013-01-10 05:02:00,48.0,32.0,-100.00,NNE,16,0.0,4.0,54,0.00,,,0.00,0.000000,,2013-01-10 12:02:00,
2013-01-10 07:33:00,52.0,34.0,-100.00,ESE,118,9.0,9.0,50,-99.99,,,0.00,0.000000,,2013-01-10 14:33:00,
2013-01-10 07:43:00,52.0,34.0,-100.00,ESE,118,9.0,9.0,50,-99.99,,,0.00,0.000000,,2013-01-10 14:43:00,
2013-01-10 07:53:00,52.0,34.0,-100.00,ESE,118,9.0,9.0,50,-99.99,,,0.00,0.000000,,2013-01-10 14:53:00,
2013-01-10 08:03:00,52.0,34.0,-100.00,ESE,118,9.0,9.0,50,-99.99,,,0.00,0.000000,,2013-01-10 15:03:00,
2013-01-10 08:33:00,53.0,39.0,-100.00,ESE,122,1.0,11.0,59,0.00,,,0.00,0.000000,,2013-01-10 15:33:00,
2013-01-10 08:43:00,53.0,39.0,-100.00,ESE,122,1.0,11.0,59,0.00,,,0.00,0.000000,,2013-01-10 15:43:00,
2013-01-10 08:53:00,53.0,39.0,-100.00,ESE,122,1.0,11.0,59,0.00,,,0.00,0.000000,,2013-01-10 15:53:00,
2013-01-10 09:02:00,53.0,39.0,-100.00,ESE,122,1.0,11.0,59,0.00,,,0.00,0.000000,,2013-01-10 16:02:00,
2013-01-10 09:43:00,52.0,34.0,-100.00,NW,311,0.0,14.0,51,0.00,,,0.00,4.000000,,2013-01-10 16:43:00,
2013-01-10 09:53:00,52.0,34.0,-100.00,NW,311,0.0,14.0,51,0.00,,,0.00,4.000000,,2013-01-10 16:53:00,
2013-01-10 10:02:00,52.0,34.0,-100.00,NW,311,0.0,14.0,51,0.00,,,0.00,4.000000,,2013-01-10 17:02:00,
2013-01-10 10:43:00,55.0,35.0,-100.00,NNW,336,5.0,15.0,47,0.00,,,0.00,41.000000,,2013-01-10 17:43:00,
2013-01-10 10:53:00,55.0,35.0,-100.00,NNW,336,5.0,15.0,47,0.00,,,0.00,41.000000,,2013-01-10 17:53:00,
2013-01-10 11:03:00,55.0,35.0,-100.00,NNW,336,5.0,15.0,47,0.00,,,0.00,41.000000,,2013-01-10 18:03:00,
2013-01-10 11:33:00,61.0,43.0,-100.00,East,100,3.0,8.0,51,0.00,,,0.00,226.000000,,2013-01-10 18:33:00,
2013-01-10 11:43:00,61.0,43.0,-100.00,East,100,3.0,8.0,51,0.00,,,0.00,226.000000,,2013-01-10 18:43:00,
2013-01-10 11:53:00,61.0,43.0,-100.00,East,100,3.0,8.0,51,0.00,,,0.00,226.000000,,2013-01-10 18:53:00,
2013-01-10 12:02:00,61.0,43.0,-100.00,East,100,3.0,8.0,51,0.00,,,0.00,226.000000,,2013-01-10 19:02:00,
2013-01-10 12:43:00,61.0,45.0,-100.00,SE,144,6.0,7.0,56,0.00,,,-99.99,281.000000,,2013-01-10 19:43:00,
2013-01-10 12:53:00,61.0,45.0,-100.00,SE,144,6.0,7.0,56,0.00,,,-99.99,281.000000,,2013-01-10 19:53:00,
2013-01-10 13:02:00,61.0,45.0,-100.00,SE,144,6.0,7.0,56,0.00,,,-99.99,281.000000,,2013-01-10 20:02:00,
2013-01-10 13:33:00,61.0,39.0,-100.00,WSW,248,5.0,9.0,44,0.00,,,0.00,266.000000,,2013-01-10 20:33:00,
2013-01-10 13:43:00,61.0,39.0,-100.00,WSW,248,5.0,9.0,44,0.00,,,0.00,266.000000,,2013-01-10 20:43:00,
2013-01-10 13:53:00,61.0,39.0,-100.00,WSW,248,5.0,9.0,44,0.00,,,0.00,266.000000,,2013-01-10 20:53:00,
2013-01-10 14:03:00,61.0,39.0,-100.00,WSW,248,5.0,9.0,44,0.00,,,0.00,266.000000,,2013-01-10 21:03:00,
2013-01-10 14:33:00,66.0,43.0,-100.00,West,269,17.0,17.0,43,0.00,,,0.00,505.000000,,2013-01-10 21:33:00,
2013-01-10 14:43:00,66.0,43.0,-100.00,West,269,17.0,17.0,43,0.00,,,0.00,505.000000,,2013-01-10 21:43:00,
2013-01-10 14:53:00,66.0,43.0,-100.00,West,269,17.0,17.0,43,0.00,,,0.00,505.000000,,2013-01-10 21:53:00,
2013-01-10 15:03:00,66.0,43.0,-100.00,West,269,17.0,17.0,43,0.00,,,0.00,505.000000,,2013-01-10 22:03:00,
2013-01-10 15:44:00,63.0,36.0,-100.00,West,281,18.0,24.0,37,0.00,,,0.00,356.000000,,2013-01-10 22:44:00,
2013-01-10 16:02:00,63.0,36.0,-100.00,West,281,18.0,24.0,37,0.00,,,0.00,356.000000,,2013-01-10 23:02:00,
2013-01-10 16:43:00,61.0,28.0,-100.00,West,276,21.0,32.0,28,0.00,,,0.00,323.000000,,2013-01-10 23:43:00,
2013-01-10 16:53:00,61.0,28.0,-100.00,West,276,21.0,32.0,28,0.00,,,0.00,323.000000,,2013-01-10 23:53:00,
2013-01-10 17:02:00,61.0,28.0,-100.00,West,276,21.0,32.0,28,0.00,,,0.00,323.000000,,2013-01-11 00:02:00,
2013-01-10 17:43:00,62.0,28.0,-100.00,West,276,28.0,32.0,27,0.00,,,0.00,423.000000,,2013-01-11 00:43:00,
2013-01-10 17:53:00,62.0,28.0,-100.00,West,276,28.0,32.0,27,0.00,,,0.00,423.000000,,2013-01-11 00:53:00,
2013-01-10 18:02:00,62.0,28.0,-100.00,West,276,28.0,32.0,27,0.00,,,0.00,423.000000,,2013-01-11 01:02:00,
2013-01-10 18:34:00,58.0,23.0,-100.00,West,270,29.0,41.0,26,0.00,,,0.00,194.000000,,2013-01-11 01:34:00,
2013-01-10 18:43:00,58.0,23.0,-100.00,West,270,29.0,41.0,26,0.00,,,0.00,194.000000,,2013-01-11 01:43:00,
2013-01-10 18:53:00,58.0,23.0,-100.00,West,270,29.0,41.0,26,0.00,,,0.00,194.000000,,2013-01-11 01:53:00,
2013-01-10 19:02:00,58.0,23.0,-100.00,West,270,29.0,41.0,26,0.00,,,0.00,194.000000,,2013-01-11 02:02:00,
2013-01-10 19:33:00,55.0,24.0,-100.00,West,264,26.0,48.0,30,0.00,,,0.00,38.000000,,2013-01-11 02:33:00,
2013-01-10 19:43:00,55.0,24.0,-100.00,West,264,26.0,48.0,30,0.00,,,0.00,38.000000,,2013-01-11 02:43:00,
2013-01-10 19:54:00,55.0,24.0,-100.00,West,264,26.0,48.0,30,0.00,,,0.00,38.000000,,2013-01-11 02:54:00,
2013-01-10 20:02:00,55.0,24.0,-100.00,West,264,26.0,48.0,30,0.00,,,0.00,38.000000,,2013-01-11 03:02:00,
2013-01-10 20:33:00,53.0,26.0,-100.00,West,275,21.0,45.0,35,0.00,,,0.00,0.000000,,2013-01-11 03:33:00,
2013-01-10 20:43:00,53.0,26.0,-100.00,West,275,21.0,45.0,35,0.00,,,0.00,0.000000,,2013-01-11 03:43:00,
2013-01-10 20:53:00,53.0,26.0,-100.00,West,275,21.0,45.0,35,0.00,,,0.00,0.000000,,2013-01-11 03:53:00,
2013-01-10 21:02:00,53.0,26.0,-100.00,West,275,21.0,45.0,35,0.00,,,0.00,0.000000,,2013-01-11 04:02:00,
2013-01-10 21:33:00,53.0,31.0,-100.00,West,271,17.0,40.0,43,0.00,,,0.00,0.000000,,2013-01-11 04:33:00,
2013-01-10 21:43:00,53.0,31.0,-100.00,West,271,17.0,40.0,43,0.00,,,0.00,0.000000,,2013-01-11 04:43:00,
2013-01-10 21:53:00,53.0,31.0,-100.00,West,271,17.0,40.0,43,0.00,,,0.00,0.000000,,2013-01-11 04:53:00,
2013-01-10 22:03:00,53.0,31.0,-100.00,West,271,17.0,40.0,43,0.00,,,0.00,0.000000,,2013-01-11 05:03:00,
2013-01-10 22:33:00,50.0,32.0,-100.00,West,264,13.0,28.0,49,0.00,,,0.00,0.000000,,2013-01-11 05:33:00,
2013-01-10 22:43:00,50.0,32.0,-100.00,West,264,13.0,28.0,49,0.00,,,0.00,0.000000,,2013-01-11 05:43:00,
2013-01-10 22:52:00,50.0,32.0,-100.00,West,264,13.0,28.0,49,0.00,,,0.00,0.000000,,2013-01-11 05:52:00,
2013-01-10 23:02:00,50.0,32.0,-100.00,West,264,13.0,28.0,49,0.00,,,0.00,0.000000,,2013-01-11 06:02:00,
2013-01-10 23:32:00,50.0,30.0,-100.00,West,264,14.0,24.0,46,0.00,,,0.00,0.000000,,2013-01-11 06:32:00,
2013-01-10 23:42:00,50.0,30.0,-100.00,West,264,14.0,24.0,46,0.00,,,0.00,0.000000,,2013-01-11 06:42:00,
2013-01-10 23:52:00,50.0,30.0,-100.00,West,264,14.0,24.0,46,0.00,,,0.00,0.000000,,2013-01-11 06:52:00,